Regional Weather Roundup
Issued by NWS State College, PA

Home | Current Version | Previous Version | Text Only | Print | Product List | Glossary On
Versions: 1 2 3 4 5 6 7 8 9 10 11 12 13 14 15 16 17 18 19 20 21 22 23 24 25 26 27 28 29 30 31 32 33 34 35 36 37 38 39 40 41 42 43 44 45 46 47 48 49 50
000
ASUS41 KCTP 220010
RWRCTP

REGIONAL WEATHER ROUNDUP
NATIONAL WEATHER SERVICE STATE COLLEGE PA
700 PM EST WED FEB 21 2018

Note: "fair" indicates few or no clouds below 12,000 feet with no
significant weather and/or obstructions to visibility.

* = STATION THAT DOES NOT REPORT PRECIPITATION /E.G. RAIN...SNOW...ETC/
    THUNDER OR FOG.

PAZ002>004-007>009-013>016-020>023-029>032-220100-
WESTERN PENNSYLVANIA

CITY           SKY/WX    TMP DP  RH WIND       PRES   REMARKS
ERIE           FAIR      35  30  82 NE3       30.55S
MEADVILLE      MIX PCPN  32  32 100 N8        30.51R
FRANKLIN*      CLOUDY    37  34  89 N8        30.49R
NEW CASTLE     CLOUDY    38  36  92 N7        30.52R
BEAVER COUNTY  CLOUDY    37  34  87 N9G17     30.49R
BUTLER*        CLOUDY    42  38  85 N8        30.49R
PITTSBURGH INT CLOUDY    45  39  79 N13       30.47R
PITTSBURGH     CLOUDY    45  40  82 N12       30.44R
INDIANA*       CLOUDY    48  48 100 N7        30.47R
LATROBE        CLOUDY    48  48 100 N8        30.45R
WASHINGTON CO* CLOUDY    44  41  89 N8        30.49R
$$

PAZ004>006-010>012-017>019-024>028-033>037-041-042-045-046-049>053-220100-
CENTRAL PENNSYLVANIA

CITY           SKY/WX    TMP DP  RH WIND       PRES   REMARKS
BRADFORD       CLOUDY    38  36  92 N8        30.47R
DUBOIS         CLOUDY    42  37  82 N12       30.45R
CLEARFIELD     CLOUDY    50  45  83 N9        30.43R
JOHNSTOWN      CLOUDY    53  50  89 NW5       30.40R
ALTOONA        MOCLDY    57  51  80 N6        30.39R
STATE COLLEGE  CLOUDY    59  52  77 NW9       30.39R
WILLIAMSPORT   CLOUDY    52  44  74 N14G21    30.41R
SELINSGROVE    CLOUDY    63  52  67 N16G23    30.37R
FT INDIANTOWN  CLOUDY    68  54  60 N13G24    30.31R
CAPITAL CITY   CLOUDY    72  56  57 NW10      30.31R
HARRISBURG     MOCLDY    64  53  67 NW12      30.30R
YORK           MOCLDY    69  65  86 VRB3      30.29R
$$

PAZ038>040-043-044-047-048-054-055-060>062-067>071-220100-
EASTERN PENNSYLVANIA

CITY           SKY/WX    TMP DP  RH WIND       PRES   REMARKS
SCRANTON       LGT RAIN  49  44  83 NW12      30.43R
MOUNT POCONO   CLOUDY    50  46  86 NW20G26   30.35R
ALLENTOWN      LGT RAIN  66  55  67 N18       30.30R
QUAKERTOWN*    MOCLDY    70  64  83 SW6G16    30.28R
READING        HVY RAIN  66  65  96 N15       30.30R
LANCASTER      MOCLDY    69  64  84 W6        30.28R
COATESVILLE    LGT RAIN  68 -38   1 VRB5      30.31R
POTTSTOWN      RAIN      68  62  81 SW8G18    30.30R
BLUE BELL      FAIR      70  61  73 SW6       30.30R
DOYLESTOWN     FAIR      72  60  66 S8        30.27R
WILLOW GROVE   NOT AVBL
NORTH PHILA    FAIR      74  61  63 SW8       30.29R
PHILADELPHIA   FAIR      71  60  68 SW13G23   30.28R
$$



USA.gov is the U.S. government's official web portal to all federal, state and local government web resources and services.